Find Starlink 37348

NORAD ID: 68737 Int'l Des: 2026-082 Owner: SPXS Country: US Constellation: starlink operational
LEOCIRCULARRETROGRADE

当前视图

正在加载3D地球...

关于 Starlink 37348

正在加载描述...

即将过境

Passes for default location (London). Set your location on the main map for personalized predictions.

高度历史

Loading altitude history...

两行轨道根数

1 68737U 26082K 26151.16668980 -.01886423 00000-0 -45399-1 0 9993
2 68737 97.2838 14.8844 0001652 81.0589 83.3687 15.44470384 5947
Epoch: May 31, 2026 • Age: 9 hours

当前状态

高度 439.9 km
速度 7.65 km/s
星下点 12.52°N, 107.62°E
发射日期 Apr 15, 2026
运行时间 0.1 years
类型 internet

技术详情

分类 Payload
质量 575.00 kg
干质量 530.00 kg
总质量 575.00 kg
长度 0.30 m
直径 4.10 m
跨度 29.00 m
形状 Box + pan
制造商 SPXS
平台类型 Starlink V2MO
阶段状态 In Orbit
所有者/国家 SPXS/US

Most Searched